Location: Misciano
(43.5000°N, 11.9500°E)
Time: 09:37:13
(UTC+00:00)

COSMOS 2428 - Pass Details

Date: 13 August 2020
Orbit: 844 x 859 km, 70.9° (Epoch: 20 September)

Event Time Altitude Azimuth Distance (km) Brightness Sun altitude
Rises 22:57:25 0° 330° (NNW) 3,435 6.8 -32.0°
Reaches altitude 10° 22:59:56 10° 325° (NW) 2,497 5.8 -32.1°
Enters shadow 23:03:51 40° 297° (WNW) 1,256 3.7 -32.1°
